Location: Ebendorf
(52.1827°N, 11.5706°E)
Time: 08:28:25
(UTC+00:00)

Cosmos 1758 - Pass Details

Date: 15 May 2021
Orbit: 538 x 563 km, 82.5° (Epoch: 23 June)

Event Time Altitude Azimuth Distance (km) Brightness Sun altitude
Rises 00:30:08 0° 347° (NNW) 2,769 7.9 -16.8°
Reaches altitude 10° 00:32:20 10° 344° (NNW) 1,866 6.8 -16.7°
Maximum altitude 00:36:25 66° 263° (W) 617 3.4 -16.5°
Enters shadow 00:38:06 33° 191° (SSW) 953 4.0 -16.4°
